Ballincollig, Ireland

5:03 AM IST on April 29, 2017 (GMT +0100)
Ballincollig

Weather History for 03955 - November, 2012

Change the Weather History Date:

Friday, November 23, 2012

  Actual Average Record
Temperature  
Mean Temperature 40 °F -  
Max Temperature 46 °F 48 °F - ()
Min Temperature 33 °F 38 °F - ()
Degree Days  
Heating Degree Days 26    
Moisture  
Dew Point 38 °F    
Average Humidity 92    
Maximum Humidity 100    
Minimum Humidity 80    
Precipitation  
Precipitation 0.00 in 0.17 in - ()
Sea Level Pressure  
Sea Level Pressure 29.78 in    
Wind  
Wind Speed 7 mph ()    
Max Wind Speed 18 mph    
Max Gust Speed -    
Visibility 6.9 miles    
Events Rain    
T = Trace of Precipitation, MM = Missing Value Source: Averaged Metar Reports

Daily Weather History Graph

Daily Weather History Graph

Search for Another Location

Airport or City:

Trip Planner

Search our weather history database for the weather conditions in past years. The results will help you decide how hot, cold, wet, or windy it might be!

Date:

Astronomy

Nov. 23, 2012 Rise Set
Actual Time 8:07 AM GMT 4:33 PM GMT
Civil Twilight 7:28 AM GMT 5:11 PM GMT
Nautical Twilight 6:46 AM GMT 5:53 PM GMT
Astronomical Twilight 6:06 AM GMT 6:33 PM GMT
Moon 2:08 PM GMT (11/23) 2:41 AM GMT (11/23)
Length of Visible Light 9h 42m
Length of Day
8h 25m
Waxing Gibbous, 78% of the Moon is Illuminated
Nov 23
Waxing Gibbous
Nov 28
Full
Dec 6
Last Quarter
Dec 13
New
Dec 20
First Quarter

Hourly Weather History & Observations

Time (GMT) Temp. Windchill Dew Point Humidity Pressure Visibility Wind Dir Wind Speed Gust Speed Precip Events Conditions
12:00 AM 37 °F - 36 °F 96% 29.64 in 16 mi SW 8.9 mph - -   Scattered Clouds
12:00 AM 37.4 °F 30.8 °F 35.6 °F 93% 29.59 in 6.2 mi SW 9.2 mph - N/A   Partly Cloudy
12:30 AM 35.6 °F 28.6 °F 35.6 °F 100% 29.62 in 6.2 mi SW 9.2 mph - N/A   Partly Cloudy
1:00 AM 37.4 °F 31.4 °F 37.4 °F 100% 29.62 in - SW 8.1 mph - N/A   Clear
1:30 AM 37.4 °F 30.8 °F 35.6 °F 93% 29.62 in - SW 9.2 mph - N/A   Clear
2:00 AM 37.4 °F 30.8 °F 35.6 °F 93% 29.65 in - SW 9.2 mph - N/A   Clear
2:30 AM 37.4 °F 31.4 °F 37.4 °F 100% 29.65 in - SW 8.1 mph - N/A   Clear
3:00 AM 41.0 °F 35.2 °F 39.2 °F 93% 29.65 in 6.2 mi WSW 9.2 mph - N/A   Partly Cloudy
4:00 AM 41.0 °F 36.4 °F 37.4 °F 87% 29.68 in 6.2 mi West 6.9 mph - N/A   Partly Cloudy
4:30 AM 37.4 °F 33.8 °F 37.4 °F 100% 29.68 in 6.2 mi South 4.6 mph - N/A   Scattered Clouds
5:00 AM 37.4 °F 33.8 °F 35.6 °F 93% 29.68 in 6.2 mi SSW 4.6 mph - N/A   Scattered Clouds
5:30 AM 37.4 °F 31.4 °F 35.6 °F 93% 29.68 in 6.2 mi WSW 8.1 mph - N/A   Scattered Clouds
6:00 AM 36 °F - 36 °F 100% 29.72 in 16 mi WSW 6.7 mph - -   Scattered Clouds
6:00 AM 35.6 °F 29.9 °F 35.6 °F 100% 29.68 in 6.2 mi WSW 6.9 mph - N/A   Partly Cloudy
6:30 AM 35.6 °F 29.9 °F 35.6 °F 100% 29.68 in 6.2 mi SW 6.9 mph - N/A   Partly Cloudy
7:00 AM 33.8 °F 27.0 °F 33.8 °F 100% 29.68 in 6.2 mi SW 8.1 mph - N/A   Partly Cloudy
7:30 AM 35.6 °F 28.6 °F 35.6 °F 100% 29.71 in 6.2 mi SW 9.2 mph - N/A   Partly Cloudy
8:00 AM 35.6 °F 29.2 °F 35.6 °F 100% 29.71 in 6.2 mi SW 8.1 mph - N/A   Partly Cloudy
8:30 AM 35.6 °F 29.9 °F 33.8 °F 93% 29.74 in 6.2 mi SSW 6.9 mph - N/A   Partly Cloudy
9:00 AM 35.6 °F 29.9 °F 35.6 °F 100% 29.74 in 6.2 mi SSW 6.9 mph - N/A   Partly Cloudy
9:30 AM 39.2 °F 33.0 °F 37.4 °F 93% 29.74 in 6.2 mi SW 9.2 mph - N/A   Partly Cloudy
10:00 AM 42.8 °F 37.5 °F 39.2 °F 87% 29.77 in 6.2 mi SW 9.2 mph - N/A   Partly Cloudy
10:30 AM 42.8 °F 38.0 °F 41.0 °F 93% 29.77 in 6.2 mi SW 8.1 mph - N/A   Partly Cloudy
11:00 AM 44.6 °F 39.2 °F 41.0 °F 87% 29.77 in 6.2 mi SW 10.4 mph - N/A   Partly Cloudy
11:30 AM 42.8 °F 35.8 °F 39.2 °F 87% 29.77 in 6.2 mi SW 13.8 mph - N/A   Partly Cloudy
12:00 PM 44 °F - 40 °F 80% 29.82 in 19 mi West 17.9 mph - - Rain Light Rain Showers
12:00 PM 42.8 °F 34.8 °F 41.0 °F 93% 29.80 in 6.2 mi West 17.3 mph - N/A Rain Light Rain Showers
12:30 PM 44.6 °F 37.4 °F 41.0 °F 87% 29.80 in 6.2 mi WSW 16.1 mph - N/A Rain Light Rain Showers
1:00 PM 42.8 °F 35.8 °F 39.2 °F 87% 29.80 in 6.2 mi SW 13.8 mph - N/A   Scattered Clouds
1:30 PM 44.6 °F 38.8 °F 41.0 °F 87% 29.80 in 6.2 mi SW 11.5 mph - N/A   Partly Cloudy
2:00 PM 46.4 °F 41.5 °F 41.0 °F 81% 29.80 in 6.2 mi SW 10.4 mph - N/A   Partly Cloudy
2:30 PM 46.4 °F 41.5 °F 41.0 °F 81% 29.80 in 6.2 mi SW 10.4 mph - N/A   Partly Cloudy
3:00 PM 46.4 °F 42.4 °F 41.0 °F 81% 29.80 in 6.2 mi WSW 8.1 mph - N/A   Partly Cloudy
3:30 PM 46.4 °F 41.9 °F 41.0 °F 81% 29.80 in 6.2 mi SW 9.2 mph - N/A   Partly Cloudy
4:00 PM 42.8 °F 40.1 °F 39.2 °F 87% 29.83 in 6.2 mi SW 4.6 mph - N/A   Partly Cloudy
4:30 PM 42.8 °F 38.0 °F 39.2 °F 87% 29.83 in 6.2 mi WSW 8.1 mph - N/A   Partly Cloudy
5:00 PM 41.0 °F - 39.2 °F 93% 29.86 in 6.2 mi South 1.2 mph - N/A   Partly Cloudy
5:30 PM 41.0 °F 37.1 °F 39.2 °F 93% 29.86 in 6.2 mi SW 5.8 mph - N/A   Partly Cloudy
6:00 PM 39 °F - 37 °F 91% 29.90 in 25 mi SW 4.5 mph - -   Partly Cloudy
6:00 PM 39.2 °F 35.9 °F 37.4 °F 93% 29.86 in 6.2 mi SW 4.6 mph - N/A   Partly Cloudy
6:30 PM 41.0 °F 36.4 °F 37.4 °F 87% 29.89 in 6.2 mi WSW 6.9 mph - N/A   Partly Cloudy
7:00 PM 39.2 °F 34.2 °F 37.4 °F 93% 29.89 in 6.2 mi SW 6.9 mph - N/A   Partly Cloudy
7:30 PM 39.2 °F 35.0 °F 37.4 °F 93% 29.89 in 6.2 mi SW 5.8 mph - N/A   Partly Cloudy
8:00 PM 41.0 °F - 37.4 °F 87% 29.89 in 6.2 mi West 2.3 mph - N/A   Partly Cloudy
8:30 PM 41.0 °F 37.1 °F 37.4 °F 87% 29.92 in 6.2 mi WNW 5.8 mph - N/A   Partly Cloudy
9:00 PM 41.0 °F 37.1 °F 37.4 °F 87% 29.89 in 6.2 mi WNW 5.8 mph - N/A   Partly Cloudy
9:30 PM 41.0 °F 38.0 °F 37.4 °F 87% 29.92 in 6.2 mi WNW 4.6 mph - N/A   Partly Cloudy
10:00 PM 39.2 °F - 35.6 °F 87% 29.92 in 6.2 mi WSW 2.3 mph - N/A   Partly Cloudy
10:30 PM 39.2 °F - 37.4 °F 93% 29.92 in 6.2 mi WNW 1.2 mph - N/A   Partly Cloudy
11:00 PM 37.4 °F 34.9 °F 35.6 °F 93% 29.92 in 6.2 mi NNE 3.5 mph - N/A   Partly Cloudy
11:30 PM 37.4 °F - 35.6 °F 93% 29.92 in 6.2 mi Calm Calm - N/A   Partly Cloudy